| time (UTC) | temp C | wind direction | speed KPH | gust KPH | rain 1hr cm | rain 24hr cm | rain mn cm | humidity % | barometer mb |
| 20260504081525 | 2 | 95 | 0.0 | 0.0 | 0.00 | 0.00 | 0.00 | 81 | 1010.1 |
| 20260504050013 | 3 | 326 | 0.0 | 0.0 | 0.00 | 0.00 | 0.00 | 76 | 1010.5 |
| 20260504044520 | 3 | 323 | 0.0 | 0.0 | 0.00 | 0.00 | 0.00 | 77 | 1010.5 |
| 20260504043024 | 3 | 323 | 0.0 | 3.2 | 0.00 | 0.00 | 0.00 | 78 | 1010.6 |
| 20260504041524 | 3 | 36 | 0.0 | 0.0 | 0.00 | 0.00 | 0.00 | 77 | 1010.4 |
| 20260504040011 | 3 | 36 | 0.0 | 0.0 | 0.00 | 0.00 | 0.00 | 77 | 1010.3 |
| 20260504034518 | 3 | 36 | 0.0 | 0.0 | 0.00 | 0.00 | 0.00 | 76 | 1010.2 |
| 20260504033019 | 3 | 36 | 0.0 | 0.0 | 0.00 | 0.00 | 0.00 | 75 | 1010.0 |
| 20260504031526 | 3 | 36 | 0.0 | 0.0 | 0.00 | 0.00 | 0.00 | 74 | 1009.9 |
| 20260504030031 | 3 | 36 | 0.0 | 0.0 | 0.00 | 0.00 | 0.00 | 72 | 1009.9 |
| 20260504024515 | 3 | 360 | 0.0 | 0.0 | 0.00 | 0.00 | 0.00 | 72 | 1010.0 |
| 20260504023017 | 3 | 360 | 0.0 | 3.2 | 0.00 | 0.00 | 0.00 | 71 | 1010.2 |
| 20260504021524 | 3 | 74 | 0.0 | 3.2 | 0.00 | 0.00 | 0.00 | 70 | 1010.0 |
| 20260504020035 | 4 | 311 | 0.0 | 3.2 | 0.00 | 0.00 | 0.00 | 66 | 1009.8 |
| 20260504014526 | 5 | 69 | 0.0 | 3.2 | 0.00 | 0.00 | 0.00 | 64 | 1009.7 |
| 20260504013019 | 5 | 13 | 1.6 | 4.8 | 0.00 | 0.00 | 0.00 | 63 | 1009.6 |
| 20260504011519 | 6 | 311 | 1.6 | 4.8 | 0.00 | 0.00 | 0.00 | 61 | 1009.5 |
| 20260504010022 | 6 | 285 | 0.0 | 3.2 | 0.00 | 0.00 | 0.00 | 58 | 1009.3 |
| 20260504004538 | 7 | 296 | 0.0 | 0.0 | 0.00 | 0.00 | 0.00 | 54 | 1009.1 |
| 20260504003030 | 8 | 352 | 0.0 | 3.2 | 0.00 | 0.00 | 0.00 | 49 | 1008.9 |
| 20260504001529 | 8 | 80 | 0.0 | 3.2 | 0.00 | 0.00 | 0.00 | 45 | 1008.6 |
| 20260504000004 | 10 | 284 | 3.2 | 6.4 | 0.00 | 0.00 | 0.00 | 37 | 1008.4 |
| 20260503234513 | 10 | 36 | 0.0 | 3.2 | 0.00 | 0.00 | 0.00 | 40 | 1008.3 |
| 20260503233012 | 11 | 138 | 0.0 | 4.8 | 0.00 | 0.00 | 0.00 | 36 | 1008.2 |
| 20260503231509 | 11 | 40 | 3.2 | 14.5 | 0.00 | 0.00 | 0.00 | 34 | 1008.1 |
| 20260503230009 | 12 | 202 | 1.6 | 4.8 | 0.00 | 0.00 | 0.00 | 34 | 1008.1 |
| 20260503224504 | 12 | 82 | 0.0 | 4.8 | 0.00 | 0.00 | 0.00 | 34 | 1008.1 |
| 20260503223010 | 12 | 320 | 1.6 | 6.4 | 0.00 | 0.00 | 0.00 | 36 | 1008.2 |
| 20260503221508 | 11 | 350 | 1.6 | 19.3 | 0.00 | 0.00 | 0.00 | 35 | 1008.2 |
| 20260503220027 | 12 | 65 | 4.8 | 17.7 | 0.00 | 0.00 | 0.00 | 34 | 1008.2 |
| 20260503214520 | 12 | 250 | 6.4 | 19.3 | 0.00 | 0.00 | 0.00 | 34 | 1008.3 |
| 20260503213006 | 11 | 24 | 9.7 | 17.7 | 0.00 | 0.00 | 0.00 | 36 | 1008.2 |
| 20260503211513 | 11 | 293 | 8.0 | 24.1 | 0.00 | 0.00 | 0.00 | 35 | 1008.3 |
| 20260503210015 | 11 | 293 | 9.7 | 17.7 | 0.00 | 0.00 | 0.00 | 36 | 1008.1 |
| 20260503204523 | 10 | 289 | 14.5 | 29.0 | 0.00 | 0.00 | 0.00 | 36 | 1008.1 |
| 20260503203013 | 10 | 352 | 4.8 | 27.4 | 0.00 | 0.00 | 0.00 | 37 | 1008.0 |
| 20260503201506 | 11 | 318 | 9.7 | 24.1 | 0.00 | 0.00 | 0.00 | 37 | 1007.9 |
| 20260503200013 | 11 | 346 | 8.0 | 33.8 | 0.00 | 0.00 | 0.00 | 36 | 1007.9 |
| 20260503194512 | 11 | 30 | 12.9 | 35.4 | 0.00 | 0.00 | 0.00 | 37 | 1008.0 |
| 20260503193011 | 10 | 307 | 9.7 | 27.4 | 0.00 | 0.00 | 0.00 | 37 | 1008.2 |
| 20260503191514 | 10 | 334 | 6.4 | 25.7 | 0.00 | 0.00 | 0.00 | 37 | 1008.0 |
| 20260503190016 | 10 | 28 | 4.8 | 29.0 | 0.00 | 0.00 | 0.00 | 38 | 1008.2 |
| 20260503184514 | 10 | 326 | 8.0 | 27.4 | 0.00 | 0.00 | 0.00 | 38 | 1008.1 |
| 20260503183034 | 10 | 308 | 8.0 | 25.7 | 0.00 | 0.00 | 0.00 | 39 | 1008.0 |
| 20260503181542 | 10 | 266 | 9.7 | 22.5 | 0.00 | 0.00 | 0.00 | 39 | 1008.2 |
| 20260503180039 | 10 | 329 | 8.0 | 22.5 | 0.00 | 0.00 | 0.00 | 40 | 1008.0 |
| 20260503174513 | 10 | 59 | 4.8 | 20.9 | 0.00 | 0.00 | 0.00 | 40 | 1008.0 |
| 20260503173018 | 9 | 319 | 14.5 | 24.1 | 0.00 | 0.00 | 0.00 | 42 | 1008.1 |
| 20260503171523 | 10 | 317 | 11.3 | 27.4 | 0.00 | 0.00 | 0.00 | 41 | 1008.3 |